Regional Weather Roundup
Issued by NWS

Home | Current Version | Previous Version | Graphics & Text | Print | Product List | Glossary On
Versions: 1 2 3 4 5 6 7 8 9 10 11 12 13 14 15 16 17 18 19 20 21 22 23 24 25 26 27 28 29 30 31 32 33 34 35 36 37 38 39 40 41 42 43 44 45 46 47 48 49 50
000
ASUS43 KDMX 160407
RWRIA

WEATHER ROUNDUP FOR IOWA
NATIONAL WEATHER SERVICE DES MOINES IA
1100 PM CDT MON SEP 15 2014

NOTE: "FAIR" INDICATES FEW OR NO CLOUDS BELOW 12,000 FEET WITH NO
SIGNIFICANT WEATHER AND/OR OBSTRUCTIONS TO VISIBILITY.

* - THESE STATIONS ARE NOT NWS STATIONS...THUS NOT UNDER NWS
QUALITY CONTROL.  THEY ALSO DO NOT REPORT WEATHER SUCH
AS PRECIPITATION OR FOG.

IAZ001>003-012>014-020>022-031>034-043>046-160500-
   NORTHWEST IOWA

CITY           SKY/WX    TMP DP  RH WIND       PRES   REMARKS
CARROLL *      PTCLDY    41  41 100 CALM      30.26S
CHEROKEE *     CLEAR     41  41 100 CALM      30.26S
DENISON *      CLEAR     45  45 100 CALM      30.25R
LE MARS *        N/A     43  43 100 CALM      30.26S
ORANGE CITY *  CLEAR     50  41  71 CALM      30.26R
SHELDON *      CLEAR     41  41 100 CALM      30.24S
SIOUX CITY     CLEAR     44  42  93 CALM      30.26S
SPENCER        CLEAR     43  40  89 CALM      30.25S
STORM LAKE *   CLEAR     46  43  87 CALM      30.25S
$$

IAZ055>058-069>071-079>083-090>094-160500-
   SOUTHWEST IOWA

CITY           SKY/WX    TMP DP  RH WIND       PRES   REMARKS
ATLANTIC *     CLEAR     45  45 100 CALM      30.26S
AUDUBON *      CLEAR     45  43  93 CALM      30.27S
CLARINDA *     CLEAR     43  43 100 CALM      30.28S
COUNCIL BLFS * CLEAR     52  48  87 CALM      30.25S
CRESTON *      CLEAR     48  46  93 N6        30.26S
HARLAN  *      CLEAR     43  43 100 CALM      30.30R
LAMONI         CLEAR     49  46  90 NW3       30.25R
SHENANDOAH *     N/A     45  45 100 CALM      30.27S
$$

IAZ047>049-059>061-072>074-084-160500-
   CENTRAL IOWA

CITY           SKY/WX    TMP DP  RH WIND       PRES   REMARKS
AMES           CLEAR     45  43  93 CALM      30.25S
ANKENY *       CLEAR     46  46 100 CALM      30.25S
CHARITON *     CLEAR     48  46  93 W5        30.25R
DES MOINES     CLEAR     52  45  77 CALM      30.25R
GRINNELL*      CLEAR     46  45  93 NW6       30.25R
KNOXVILLE *    CLEAR     50  46  87 N5        30.23S
MARSHALLTOWN   CLEAR     45  43  93 CALM      30.24R
PELLA *        CLEAR     46  46 100 CALM      30.26R
PERRY *          N/A     45  43  93 CALM      30.26R
$$

IAZ004>006-015-016-023>025-035-036-160500-
   NORTH CENTRAL IOWA

CITY           SKY/WX    TMP DP  RH WIND       PRES   REMARKS
ALGONA *       CLEAR     45  41  87 NW5       30.26R
CLARION *        N/A     41  41 100 CALM      30.25R
ESTHERVILLE    CLEAR     42  40  92 SW6       30.25R
FORT DODGE *   CLEAR     43  39  87 CALM      30.26S
MASON CITY     CLEAR     41  40  96 CALM      30.26R
FOREST CITY *  CLEAR     41  41 100 CALM      30.24S
IOWA FALLS *     N/A     43  41  93 CALM      30.26R
$$

IAZ007>011-017>019-026>030-037>042-050>054-066-160500-
   NORTHEAST IOWA

CITY           SKY/WX    TMP DP  RH WIND       PRES   REMARKS
CEDAR RAPIDS   CLEAR     48  46  93 CALM      30.22R
CHARLES CITY * CLEAR     46  43  87 N7        30.24S
CLINTON *      CLEAR     46  43  87 N7        30.24R
DECORAH *      PTCLDY    45  45 100 CALM      30.22S
DUBUQUE        CLEAR     41  40  96 CALM      30.22R
MONTICELLO *   CLEAR     43  43 100 CALM      30.22R
OELWEIN *      CLEAR     45  43  93 CALM      30.24R
WATERLOO       CLEAR     43  42  97 CALM      30.23R
$$

IAZ064-065-067-068-078-160500-
   EAST CENTRAL IOWA

CITY           SKY/WX    TMP DP  RH WIND       PRES   REMARKS
DAVENPORT      CLEAR     44  42  93 N3        30.22R
IOWA CITY      CLEAR     47  45  93 N3        30.23S
MT. PLEASANT * CLEAR     50  48  93 CALM      30.23R
MUSCATINE *    CLEAR     48  46  93 N7        30.22S
QUAD CITIES    CLEAR     47  46  97 CALM      30.21R
$$

IAZ062-063-075>077-085>089-095>099-160500-
   SOUTHEAST IOWA

CITY           SKY/WX    TMP DP  RH WIND       PRES   REMARKS
BURLINGTON     CLEAR     52  50  93 CALM      30.22R
FAIRFIELD *    CLEAR     48  46  93 NW5       30.24R
FORT MADISON * CLEAR     52  48  87 N3        30.23R
KEOKUK *       CLEAR     54  48  82 N7        30.21S
OSKALOOSA *      N/A     46  45  93 N5        30.24S
CENTERVILLE *  CLEAR     48  48 100 NW3       30.25S
OTTUMWA        CLEAR     48  45  89 N5        30.24R
WASHINGTON *   CLEAR     48  46  93 W5        30.24R
$$

ABBREVIATIONS USED IN REMARKS
   TC - TEMPERATURES IN CELSIUS
  WCI - WIND CHILL INDEX
   HX - HEAT INDEX
  VSB - VISIBILITY
$$



USA.gov is the U.S. government's official web portal to all federal, state and local government web resources and services.